Weather History for KRNT - January, 2013

Change the Weather History Date:

Saturday, January 12, 2013

  Actual Average Record
Temperature  
Mean Temperature 30 °F -  
Max Temperature 37 °F 45 °F 52 °F (2015)
Min Temperature 24 °F 36 °F 42 °F (2015)
Degree Days  
Heating Degree Days 34    
Moisture  
Dew Point 25 °F    
Average Humidity 85    
Maximum Humidity 93    
Minimum Humidity 55    
Precipitation  
Precipitation 0.00 in - - ()
Sea Level Pressure  
Sea Level Pressure 30.40 in    
Wind  
Wind Speed 1 mph (NNW)    
Max Wind Speed 9 mph    
Max Gust Speed -    
Visibility 9 miles    
Events      
Averages and records for this station are not official NWS values.
T = Trace of Precipitation, MM = Missing Value Source: NWS Daily Summary

Daily Weather History Graph

Daily Weather History Graph

Search for Another Location

Airport or City:

Trip Planner

Search our weather history database for the weather conditions in past years. The results will help you decide how hot, cold, wet, or windy it might be!

Date:

Astronomy

Jan. 12, 2013 Rise Set
Actual Time 7:53 AM PST 4:41 PM PST
Civil Twilight 7:18 AM PST 5:16 PM PST
Nautical Twilight 6:40 AM PST 5:54 PM PST
Astronomical Twilight 6:03 AM PST 6:31 PM PST
Moon 8:08 AM PST (1/12) 6:26 PM PST (1/12)
Length of Visible Light 9h 57m
Length of Day
8h 48m
New Moon, 2% of the Moon is Illuminated
Jan 12
New Moon
Jan 18
First Quarter
Jan 26
Full
Feb 3
Last Quarter
Feb 9
New

Hourly Weather History & Observations

Time (PST) Temp. Windchill Dew Point Humidity Pressure Visibility Wind Dir Wind Speed Gust Speed Precip Events Conditions
12:53 AM 27.0 °F - 25.0 °F 92% 30.35 in 9.0 mi Calm Calm - N/A   Clear
1:53 AM 27.0 °F - 25.0 °F 92% 30.35 in 9.0 mi Calm Calm - N/A   Clear
2:53 AM 27.0 °F - 25.0 °F 92% 30.36 in 8.0 mi Calm Calm - N/A   Clear
3:53 AM 26.1 °F - 24.1 °F 92% 30.36 in 8.0 mi Calm Calm - N/A   Clear
4:53 AM 25.0 °F - 23.0 °F 92% 30.37 in 9.0 mi Calm Calm - N/A   Clear
5:37 AM 24.8 °F - 23.0 °F 93% 30.35 in 9.0 mi Calm Calm - N/A   Scattered Clouds
5:46 AM 26.6 °F - 24.8 °F 93% 30.35 in 9.0 mi Calm Calm - N/A   Mostly Cloudy
5:53 AM 26.1 °F - 24.1 °F 92% 30.37 in 10.0 mi Calm Calm - N/A   Mostly Cloudy
6:36 AM 24.8 °F - 23.0 °F 93% 30.35 in 10.0 mi Calm Calm - N/A   Partly Cloudy
6:53 AM 25.0 °F - 23.0 °F 92% 30.37 in 10.0 mi Calm Calm - N/A   Clear
7:53 AM 26.1 °F - 24.1 °F 92% 30.39 in 10.0 mi Calm Calm - N/A   Clear
8:49 AM 26.6 °F - 23.0 °F 86% 30.39 in 10.0 mi Calm Calm - N/A   Scattered Clouds
8:53 AM 26.1 °F - 23.0 °F 88% 30.41 in 10.0 mi Calm Calm - N/A   Scattered Clouds
9:53 AM 28.9 °F - 24.1 °F 82% 30.41 in 10.0 mi Calm Calm - N/A   Clear
10:28 AM 30.2 °F - 28.4 °F 93% 30.40 in 7.0 mi Calm Calm - N/A   Partly Cloudy
10:53 AM 30.9 °F - 28.0 °F 89% 30.41 in 7.0 mi Calm Calm - N/A   Scattered Clouds
11:01 AM 30.2 °F 26.7 °F 28.4 °F 93% 30.40 in 7.0 mi North 3.5 mph - N/A   Mostly Cloudy
11:37 AM 32.0 °F - 28.4 °F 87% 30.39 in 7.0 mi Calm Calm - N/A   Clear
11:53 AM 33.1 °F 30.0 °F 28.0 °F 82% 30.40 in 9.0 mi NNW 3.5 mph - N/A   Clear
12:53 PM 35.1 °F 31.0 °F 28.0 °F 76% 30.39 in 10.0 mi NW 4.6 mph - N/A   Clear
1:53 PM 36.0 °F 29.0 °F 23.0 °F 59% 30.40 in 10.0 mi NW 9.2 mph - N/A   Clear
2:53 PM 37.0 °F 33.3 °F 24.1 °F 59% 30.41 in 10.0 mi North 4.6 mph - N/A   Clear
3:53 PM 36.0 °F 30.3 °F 21.0 °F 55% 30.41 in 10.0 mi North 6.9 mph - N/A   Partly Cloudy
4:53 PM 33.8 °F 29.6 °F 23.0 °F 65% 30.40 in 10.0 mi Variable 4.6 mph - N/A   Clear
5:53 PM 32.0 °F - 25.0 °F 75% 30.42 in 10.0 mi Calm Calm - N/A   Clear
6:53 PM 30.0 °F - 24.1 °F 79% 30.43 in 9.0 mi Calm Calm - N/A   Clear
7:53 PM 28.9 °F - 25.0 °F 85% 30.43 in 10.0 mi Calm Calm - N/A   Clear
8:53 PM 27.0 °F - 24.1 °F 89% 30.44 in 10.0 mi Calm Calm - N/A   Clear
9:53 PM 28.0 °F - 25.0 °F 88% 30.44 in 10.0 mi Calm Calm - N/A   Clear
10:53 PM 26.1 °F - 23.0 °F 88% 30.45 in 8.0 mi Calm Calm - N/A   Clear
11:53 PM 26.1 °F 21.9 °F 23.0 °F 88% 30.47 in 8.0 mi SE 3.5 mph - N/A   Clear